SWR55B LSZH-KBOS

Flight info

Callsign SWR55B
Flight time N/A
Altitude 34000
Route VEBIT T10 TORPA DCT REKLA DCT RLP DCT ROTSI/N0484F380 DCT AMODO DCT COHPA UM729 RESMI DCT TABOV DCT PIGOP DCT DITAL UN491 LGL UN502 ARGED DCT SENLO DCT JSY DCT LIZAD DCT GAPLI/M084F380 DCT SOMAX/M084F390 NATG ELSIR/N0496F400 N398B TUSKY DCT OOSHN OOSHN5
Aircraft A359/H-SDE2E3GHIJ3J4J5LM1ORWXY/LB1D1

Departure

Time 2026-05-04 13:44
Airport Zürich Airport (LSZH)

Arrival

Time N/A
Airport Boston Logan International Airport (KBOS)
Time Latitude Longitude Altitude Speed Heading
2026-05-04 12:58 47.46141 8.55868 1411 ft 0 kts 276°
2026-05-04 13:22 47.46142 8.55861 1414 ft 0 kts 276°
2026-05-04 13:23 47.46139 8.55894 1411 ft 4 kts 276°
2026-05-04 13:23 47.46137 8.55925 1412 ft 3 kts 275°
2026-05-04 13:23 47.46137 8.55962 1416 ft 4 kts 253°
2026-05-04 13:23 47.46145 8.55989 1413 ft 4 kts 216°
2026-05-04 13:24 47.46163 8.56000 1413 ft 4 kts 186°
2026-05-04 13:24 47.46189 8.56004 1412 ft 3 kts 186°
2026-05-04 13:24 47.46192 8.56004 1412 ft 1 kts 186°
2026-05-04 13:25 47.46189 8.56002 1412 ft 0 kts 186°
2026-05-04 13:31 47.46172 8.55999 1413 ft 6 kts 186°
2026-05-04 13:31 47.46105 8.55989 1415 ft 11 kts 186°
2026-05-04 13:31 47.46025 8.55976 1416 ft 13 kts 186°
2026-05-04 13:31 47.45950 8.55923 1419 ft 12 kts 241°
2026-05-04 13:32 47.45945 8.55791 1410 ft 14 kts 275°
2026-05-04 13:32 47.45955 8.55635 1408 ft 17 kts 275°
2026-05-04 13:32 47.45964 8.55513 1413 ft 0 kts 276°
2026-05-04 13:36 47.45964 8.55509 1414 ft 1 kts 276°
2026-05-04 13:37 47.45967 8.55474 1412 ft 6 kts 276°
2026-05-04 13:37 47.45972 8.55395 1406 ft 9 kts 276°
2026-05-04 13:37 47.45979 8.55285 1410 ft 12 kts 275°
2026-05-04 13:37 47.45988 8.55143 1400 ft 15 kts 275°
2026-05-04 13:38 47.46006 8.54978 1402 ft 17 kts 294°
2026-05-04 13:38 47.46107 8.54880 1404 ft 18 kts 335°
2026-05-04 13:38 47.46224 8.54801 1404 ft 19 kts 334°
2026-05-04 13:38 47.46352 8.54712 1400 ft 21 kts 335°
2026-05-04 13:39 47.46484 8.54622 1398 ft 20 kts 335°
2026-05-04 13:39 47.46611 8.54536 1405 ft 20 kts 336°
2026-05-04 13:39 47.46745 8.54446 1386 ft 22 kts 337°
2026-05-04 13:39 47.46893 8.54354 1384 ft 23 kts 335°
2026-05-04 13:40 47.47035 8.54256 1400 ft 22 kts 335°
2026-05-04 13:40 47.47172 8.54161 1402 ft 21 kts 335°
2026-05-04 13:40 47.47306 8.54069 1398 ft 21 kts 335°
2026-05-04 13:40 47.47435 8.53982 1406 ft 19 kts 335°
2026-05-04 13:41 47.47553 8.53900 1408 ft 18 kts 333°
2026-05-04 13:41 47.47659 8.53826 1414 ft 16 kts 334°
2026-05-04 13:41 47.47698 8.53721 1414 ft 0 kts 252°
2026-05-04 13:42 47.47666 8.53671 1414 ft 15 kts 213°
2026-05-04 13:42 47.47558 8.53616 1410 ft 17 kts 186°
2026-05-04 13:43 47.47503 8.53639 1412 ft 0 kts 154°
2026-05-04 13:43 47.47460 8.53671 1405 ft 30 kts 154°
2026-05-04 13:43 47.47059 8.53948 1400 ft 94 kts 155°
2026-05-04 13:43 47.46305 8.54469 1403 ft 145 kts 155°
2026-05-04 13:44 47.45266 8.55175 1524 ft 176 kts 154°
2026-05-04 13:44 47.44163 8.55904 2242 ft 170 kts 159°
2026-05-04 13:44 47.43108 8.56185 2874 ft 165 kts 180°
2026-05-04 13:44 47.41938 8.55885 3296 ft 176 kts 201°
2026-05-04 13:45 47.40913 8.54829 3544 ft 191 kts 234°
2026-05-04 13:45 47.40300 8.53013 3860 ft 206 kts 251°
2026-05-04 13:45 47.39836 8.50953 4242 ft 217 kts 253°
2026-05-04 13:45 47.39438 8.48715 4664 ft 229 kts 256°
2026-05-04 13:46 47.39042 8.46369 5002 ft 248 kts 256°
2026-05-04 13:46 47.38609 8.43793 5410 ft 262 kts 255°
2026-05-04 13:46 47.38170 8.41151 6181 ft 267 kts 254°
2026-05-04 13:46 47.37733 8.38499 6933 ft 270 kts 254°
2026-05-04 13:47 47.37289 8.35812 7670 ft 274 kts 255°
2026-05-04 13:47 47.36838 8.33037 8460 ft 278 kts 254°
2026-05-04 13:47 47.36384 8.30252 9256 ft 282 kts 255°
2026-05-04 13:47 47.35923 8.27418 10073 ft 285 kts 255°
2026-05-04 13:48 47.35360 8.24568 10566 ft 299 kts 246°
2026-05-04 13:48 47.34434 8.21702 10897 ft 316 kts 240°
2026-05-04 13:48 47.33367 8.18755 11242 ft 333 kts 240°
2026-05-04 13:48 47.32269 8.15724 11812 ft 341 kts 240°
2026-05-04 13:49 47.31145 8.12596 12548 ft 346 kts 241°
2026-05-04 13:49 47.30027 8.09464 13287 ft 349 kts 241°
2026-05-04 13:49 47.28881 8.06251 14005 ft 352 kts 241°
2026-05-04 13:49 47.27784 8.03015 14627 ft 357 kts 245°
2026-05-04 13:50 47.27155 7.99446 15250 ft 363 kts 263°
2026-05-04 13:50 47.27171 7.95729 15889 ft 368 kts 271°
2026-05-04 13:50 47.27449 7.91935 16524 ft 373 kts 275°
2026-05-04 13:50 47.27845 7.88163 17146 ft 377 kts 276°
2026-05-04 13:51 47.28283 7.84345 17772 ft 380 kts 276°
2026-05-04 13:51 47.28718 7.80507 18372 ft 384 kts 276°
2026-05-04 13:51 47.29139 7.76576 18935 ft 387 kts 275°
2026-05-04 13:51 47.29536 7.72650 19509 ft 390 kts 275°
2026-05-04 13:52 47.30328 7.64658 20749 ft 397 kts 277°
2026-05-04 13:52 47.30987 7.60720 21348 ft 402 kts 282°
2026-05-04 13:52 47.31773 7.56724 21942 ft 406 kts 283°
2026-05-04 13:53 47.32613 7.52751 22508 ft 409 kts 283°
2026-05-04 13:53 47.33494 7.48724 23084 ft 412 kts 284°
2026-05-04 13:53 47.34383 7.44709 23662 ft 415 kts 284°
2026-05-04 13:54 47.36177 7.36541 24553 ft 422 kts 283°
2026-05-04 13:54 47.37078 7.32392 25018 ft 425 kts 283°
2026-05-04 13:54 47.38879 7.24024 25939 ft 431 kts 283°
2026-05-04 13:55 47.39788 7.19787 26362 ft 435 kts 283°
2026-05-04 13:55 47.41352 7.11130 27356 ft 436 kts 278°
2026-05-04 13:55 47.42018 7.06788 27827 ft 439 kts 278°
2026-05-04 13:56 47.42675 7.02344 28262 ft 442 kts 277°
2026-05-04 13:56 47.43322 6.97900 28682 ft 445 kts 277°
2026-05-04 13:56 47.44618 6.88925 29524 ft 450 kts 277°
2026-05-04 13:57 47.45276 6.84369 29890 ft 454 kts 277°
2026-05-04 13:57 47.45932 6.79832 30266 ft 456 kts 277°
2026-05-04 13:58 47.47861 6.66007 31293 ft 459 kts 273°
2026-05-04 13:58 47.48635 6.56595 31940 ft 462 kts 271°
2026-05-04 13:58 47.48982 6.51853 32246 ft 464 kts 271°
2026-05-04 13:59 47.49316 6.47141 32554 ft 465 kts 271°
2026-05-04 13:59 47.49650 6.42360 32843 ft 467 kts 271°
2026-05-04 13:59 47.50317 6.32766 33400 ft 470 kts 271°
2026-05-04 14:00 47.50650 6.27988 33755 ft 470 kts 271°
2026-05-04 14:00 47.51319 6.18356 34474 ft 467 kts 271°
2026-05-04 14:00 47.51647 6.13590 34781 ft 466 kts 271°
2026-05-04 14:01 47.51973 6.08808 35077 ft 466 kts 271°
2026-05-04 14:01 47.52297 6.04032 35363 ft 465 kts 271°
2026-05-04 14:01 47.52979 5.94566 35926 ft 465 kts 275°
2026-05-04 14:02 47.53679 5.89861 36203 ft 469 kts 282°
2026-05-04 14:02 47.54385 5.86815 36366 ft 473 kts 288°
2026-05-04 14:02 47.56426 5.81032 36714 ft 480 kts 299°
2026-05-04 14:02 47.57769 5.78355 36891 ft 483 kts 306°
2026-05-04 14:03 47.59944 5.74627 37149 ft 484 kts 307°
2026-05-04 14:03 47.62218 5.70931 37409 ft 483 kts 308°
2026-05-04 14:03 47.64517 5.67273 37659 ft 483 kts 308°
2026-05-04 14:03 47.66818 5.63625 37901 ft 482 kts 308°
2026-05-04 14:04 47.71374 5.56342 38367 ft 480 kts 308°
2026-05-04 14:04 47.73613 5.52728 38596 ft 479 kts 308°
2026-05-04 14:04 47.75872 5.49062 38752 ft 479 kts 308°
2026-05-04 14:05 47.80360 5.41750 38964 ft 480 kts 308°
2026-05-04 14:05 47.82639 5.38026 39102 ft 480 kts 308°
2026-05-04 14:06 47.87114 5.30706 39318 ft 481 kts 308°
2026-05-04 14:06 47.89381 5.26990 39431 ft 481 kts 308°
2026-05-04 14:06 47.91635 5.23296 39523 ft 482 kts 308°
2026-05-04 14:07 47.96126 5.15921 39733 ft 482 kts 308°
2026-05-04 14:07 47.98388 5.12190 39838 ft 482 kts 308°
2026-05-04 14:07 48.00632 5.08484 39930 ft 482 kts 308°
2026-05-04 14:08 48.05162 5.00984 39981 ft 486 kts 308°
2026-05-04 14:08 48.09677 4.93494 39979 ft 487 kts 308°
2026-05-04 14:09 48.16490 4.82160 39973 ft 487 kts 308°
2026-05-04 14:10 48.23270 4.70809 39969 ft 487 kts 307°
2026-05-04 14:10 48.26893 4.62427 39970 ft 478 kts 290°
2026-05-04 14:11 48.28690 4.52907 39970 ft 471 kts 276°
2026-05-04 14:11 48.30067 4.38305 39968 ft 472 kts 274°
2026-05-04 14:12 48.30911 4.28508 39967 ft 472 kts 274°
2026-05-04 14:13 48.32214 4.13821 39968 ft 473 kts 275°
2026-05-04 14:13 48.33080 4.04086 39964 ft 473 kts 275°
2026-05-04 14:14 48.33949 3.94221 39968 ft 473 kts 274°
2026-05-04 14:14 48.35227 3.79507 39965 ft 474 kts 274°
2026-05-04 14:15 48.36909 3.59797 39964 ft 475 kts 274°
2026-05-04 14:16 48.38146 3.45027 39964 ft 475 kts 274°
2026-05-04 14:17 48.39366 3.30225 39963 ft 475 kts 274°
2026-05-04 14:18 48.40563 3.15465 39963 ft 476 kts 274°
2026-05-04 14:19 48.42448 2.95756 39967 ft 479 kts 282°
2026-05-04 14:19 48.44220 2.86046 39959 ft 480 kts 283°
2026-05-04 14:20 48.46094 2.76360 39961 ft 481 kts 283°
2026-05-04 14:20 48.47957 2.66683 39962 ft 481 kts 283°
2026-05-04 14:21 48.50715 2.52140 39968 ft 481 kts 283°
2026-05-04 14:21 48.52533 2.42469 39962 ft 481 kts 283°
2026-05-04 14:22 48.54343 2.32794 39959 ft 481 kts 283°
2026-05-04 14:22 48.56166 2.22998 39957 ft 481 kts 283°
2026-05-04 14:23 48.58584 2.08336 39958 ft 480 kts 278°
2026-05-04 14:24 48.59862 1.98477 39961 ft 480 kts 278°
2026-05-04 14:24 48.61176 1.88551 39957 ft 480 kts 279°
2026-05-04 14:25 48.62522 1.78707 39955 ft 480 kts 279°
2026-05-04 14:25 48.64566 1.63852 39945 ft 481 kts 279°
2026-05-04 14:26 48.65911 1.53981 39942 ft 481 kts 279°
2026-05-04 14:26 48.67240 1.44060 39945 ft 481 kts 279°
2026-05-04 14:27 48.68564 1.34113 39946 ft 481 kts 279°
2026-05-04 14:27 48.69882 1.24199 39949 ft 481 kts 278°
2026-05-04 14:28 48.71190 1.14248 39952 ft 481 kts 278°
2026-05-04 14:28 48.72486 1.04319 39950 ft 482 kts 278°
2026-05-04 14:29 48.75062 0.84441 39951 ft 482 kts 278°
2026-05-04 14:30 48.76352 0.74415 39955 ft 482 kts 278°
2026-05-04 14:31 48.78253 0.59486 39958 ft 482 kts 278°
2026-05-04 14:32 48.81296 0.39645 39964 ft 485 kts 284°
2026-05-04 14:32 48.83205 0.29812 39959 ft 485 kts 284°
2026-05-04 14:33 48.85033 0.20002 39960 ft 485 kts 283°
2026-05-04 14:33 48.86808 0.10106 39968 ft 485 kts 283°
2026-05-04 14:34 48.88563 0.00178 39970 ft 485 kts 283°
2026-05-04 14:34 48.90295 -0.09662 39969 ft 485 kts 283°
2026-05-04 14:35 48.92036 -0.19589 39970 ft 486 kts 283°
2026-05-04 14:35 48.93775 -0.29556 39978 ft 486 kts 282°
2026-05-04 14:36 48.95457 -0.39508 39989 ft 487 kts 282°
2026-05-04 14:36 48.97121 -0.49487 39979 ft 487 kts 282°
2026-05-04 14:37 48.98789 -0.59507 39988 ft 488 kts 282°
2026-05-04 14:37 49.00458 -0.69559 39980 ft 487 kts 282°
2026-05-04 14:38 49.02100 -0.79492 39981 ft 487 kts 282°
2026-05-04 14:38 49.03745 -0.89509 39974 ft 487 kts 282°
2026-05-04 14:39 49.05390 -0.99586 39970 ft 487 kts 282°
2026-05-04 14:39 49.07011 -1.09577 39974 ft 487 kts 282°
2026-05-04 14:40 49.09441 -1.24624 39973 ft 488 kts 282°
2026-05-04 14:40 49.11077 -1.34723 39974 ft 488 kts 282°
2026-05-04 14:41 49.12696 -1.44767 39978 ft 489 kts 282°
2026-05-04 14:42 49.15645 -1.63256 39980 ft 489 kts 282°
2026-05-04 14:42 49.17249 -1.73405 39983 ft 490 kts 282°
2026-05-04 14:43 49.18831 -1.83477 39986 ft 490 kts 281°
2026-05-04 14:43 49.20417 -1.93632 39989 ft 491 kts 281°
2026-05-04 14:44 49.21993 -2.03790 39994 ft 491 kts 281°
2026-05-04 14:44 49.23662 -2.13999 39997 ft 492 kts 283°
2026-05-04 14:45 49.25431 -2.24101 39997 ft 493 kts 283°
2026-05-04 14:45 49.27199 -2.34284 39994 ft 493 kts 283°
2026-05-04 14:46 49.28923 -2.44413 39992 ft 493 kts 283°
2026-05-04 14:46 49.30631 -2.54566 40020 ft 493 kts 283°
2026-05-04 14:47 49.32339 -2.64777 40018 ft 493 kts 283°
2026-05-04 14:47 49.34026 -2.74922 40021 ft 493 kts 283°
2026-05-04 14:48 49.35717 -2.85146 40013 ft 494 kts 282°
2026-05-04 14:48 49.37397 -2.95364 40003 ft 494 kts 282°
2026-05-04 14:49 49.39072 -3.05610 40007 ft 494 kts 282°
2026-05-04 14:49 49.40733 -3.15841 39999 ft 494 kts 282°
2026-05-04 14:50 49.42381 -3.26049 40000 ft 494 kts 282°
2026-05-04 14:50 49.44019 -3.36259 40000 ft 494 kts 282°
2026-05-04 14:51 49.45656 -3.46528 40001 ft 494 kts 282°
2026-05-04 14:51 49.47282 -3.56789 40000 ft 494 kts 282°
2026-05-04 14:52 49.48898 -3.67048 40002 ft 494 kts 282°
2026-05-04 14:52 49.50514 -3.77374 40003 ft 494 kts 282°
2026-05-04 14:53 49.52113 -3.87658 40004 ft 494 kts 282°
2026-05-04 14:53 49.53702 -3.97944 40001 ft 494 kts 282°
2026-05-04 14:54 49.55285 -4.08258 40003 ft 494 kts 282°
2026-05-04 14:54 49.56851 -4.18525 40002 ft 494 kts 282°
2026-05-04 14:55 49.58420 -4.28881 40003 ft 494 kts 282°
2026-05-04 14:55 49.59934 -4.39225 40001 ft 494 kts 281°
2026-05-04 14:56 49.61234 -4.49617 40000 ft 494 kts 279°
2026-05-04 14:56 49.62502 -4.60063 40004 ft 494 kts 280°
2026-05-04 14:57 49.63790 -4.70489 40004 ft 495 kts 280°
2026-05-04 14:57 49.65086 -4.80910 40005 ft 495 kts 280°
2026-05-04 14:58 49.66378 -4.91346 40004 ft 496 kts 280°
2026-05-04 14:58 49.67659 -5.01791 40005 ft 496 kts 280°
2026-05-04 14:59 49.68933 -5.12262 40005 ft 497 kts 280°
2026-05-04 15:00 49.70829 -5.28009 40006 ft 497 kts 280°
2026-05-04 15:00 49.72081 -5.38517 40003 ft 497 kts 280°
2026-05-04 15:01 49.73942 -5.54286 40004 ft 498 kts 279°
2026-05-04 15:01 49.75171 -5.64812 40004 ft 498 kts 279°
2026-05-04 15:02 49.76385 -5.75291 40008 ft 498 kts 279°
2026-05-04 15:02 49.77600 -5.85872 40012 ft 498 kts 279°
2026-05-04 15:03 49.78802 -5.96422 40015 ft 498 kts 279°
2026-05-04 15:03 49.79998 -6.07015 40017 ft 498 kts 279°
2026-05-04 15:04 49.81176 -6.17536 40019 ft 498 kts 279°
2026-05-04 15:04 49.82349 -6.28105 40022 ft 498 kts 279°
2026-05-04 15:05 49.83513 -6.38679 40020 ft 498 kts 279°
2026-05-04 15:05 49.84674 -6.49324 40017 ft 498 kts 279°
2026-05-04 15:06 49.85817 -6.59898 40013 ft 498 kts 279°
2026-05-04 15:07 49.87507 -6.75708 40011 ft 498 kts 279°
2026-05-04 15:07 49.88631 -6.86340 40004 ft 498 kts 279°
2026-05-04 15:08 49.89736 -6.96891 40007 ft 498 kts 279°
2026-05-04 15:08 49.90839 -7.07516 40005 ft 498 kts 279°
2026-05-04 15:09 49.91932 -7.18145 40008 ft 498 kts 279°
2026-05-04 15:09 49.93021 -7.28830 40006 ft 499 kts 279°
2026-05-04 15:10 49.94625 -7.44770 40012 ft 500 kts 279°
2026-05-04 15:11 49.96212 -7.60759 40012 ft 500 kts 279°
2026-05-04 15:11 49.97263 -7.71478 40011 ft 501 kts 279°
2026-05-04 15:12 49.98299 -7.82159 40012 ft 501 kts 279°
2026-05-04 15:12 49.99331 -7.92887 40015 ft 501 kts 279°
2026-05-04 15:13 50.00095 -8.03633 40022 ft 501 kts 274°
2026-05-04 15:13 50.00458 -8.14410 40020 ft 502 kts 273°
2026-05-04 15:14 50.00755 -8.25268 40023 ft 502 kts 273°
2026-05-04 15:14 50.01041 -8.36113 40029 ft 502 kts 273°
2026-05-04 15:15 50.01324 -8.46965 40028 ft 503 kts 273°
2026-05-04 15:15 50.01602 -8.57850 40033 ft 503 kts 273°
2026-05-04 15:16 50.02001 -8.74091 40040 ft 503 kts 273°
2026-05-04 15:17 50.02376 -8.90398 40041 ft 502 kts 273°
2026-05-04 15:17 50.02729 -9.06719 40050 ft 502 kts 273°
2026-05-04 15:18 50.02951 -9.17553 40052 ft 502 kts 273°
2026-05-04 15:19 50.03265 -9.33828 40055 ft 502 kts 273°
2026-05-04 15:19 50.03556 -9.50095 40062 ft 502 kts 273°
2026-05-04 15:20 50.03737 -9.60881 40063 ft 501 kts 272°
2026-05-04 15:20 50.03909 -9.71750 40070 ft 501 kts 272°
2026-05-04 15:21 50.04069 -9.82554 40072 ft 501 kts 272°
2026-05-04 15:22 50.04291 -9.98829 40070 ft 500 kts 272°
2026-05-04 15:22 50.04470 -10.13308 40077 ft 500 kts 272°
2026-05-04 15:23 50.04611 -10.25854 40079 ft 500 kts 272°
2026-05-04 15:23 50.04704 -10.34922 40074 ft 500 kts 272°
2026-05-04 15:24 50.04898 -10.56594 40084 ft 501 kts 272°
2026-05-04 15:25 50.04980 -10.67424 40083 ft 501 kts 272°
2026-05-04 15:26 50.05084 -10.83690 40091 ft 502 kts 272°
2026-05-04 15:26 50.05166 -11.00013 40092 ft 502 kts 272°
2026-05-04 15:27 50.05224 -11.16295 40098 ft 503 kts 272°
2026-05-04 15:28 50.05260 -11.32650 40107 ft 503 kts 272°
2026-05-04 15:29 50.05272 -11.49018 40111 ft 504 kts 272°